Tracking 29892 objects as of 21-Nov-2024
HD Live streaming from Space Station
objects crossing your sky now

CZ-6A DEB

Track CZ-6A DEB now!
10-day predictions


NORAD ID: 54514
Int'l Code: 2022-151JS
Perigee: 722.7 km
Apogee: 833.1 km
Inclination: 98.8 °
Period: 100.3 minutes
Semi major axis: 7148 km
RCS: Unknown
Launch date: November 11, 2022
Source: People's Republic of China (PRC)
Launch site: Taiyaun Space Center, China (TSC)

Note: This is SATELLITE DEBRIS
Your satellite tracking list
Your tracking list is empty




NASA's NSSDC Master Catalog

Two Line Element Set (TLE):
1 54514U 22151JS  24324.72033468  .00001089  00000-0  37566-3 0  9996
2 54514  98.7535 352.6029 0077223 215.7953 143.8042 14.36285022105706
Source of the keplerian elements: AFSPC